FW5697 Weather Reports


time (UTC)temp
C
wind
direction
speed
KPH
gust
KPH
rain 1hr
cm
rain 24hr
cm
rain mn
cm
humidity
%
barometer
mb
20260831093049 21 0 0.0 0.0 0.00 0.00 0.00 96 1019.9
20260831091533 21 0 0.0 0.0 0.00 0.00 0.00 96 1019.8
20260831090037 21 0 0.0 0.0 0.00 0.00 0.00 96 1019.8
20260831084533 21 0 0.0 0.0 0.00 0.00 0.00 96 1019.7
20260831083052 21 0 0.0 0.0 0.00 0.00 0.00 96 1019.5
20260831081534 21 0 0.0 0.0 0.00 0.00 0.00 96 1019.4
20260831074533 21 0 0.0 0.0 0.00 0.00 0.00 95 1019.5
20260831073037 21 0 0.0 0.0 0.00 0.00 0.00 95 1019.3
20260831071543 21 0 0.0 0.0 0.00 0.00 0.00 95 1019.1
20260831070037 21 0 0.0 0.0 0.00 0.00 0.00 95 1019.2
20260831064532 22 0 0.0 0.0 0.00 0.00 0.00 95 1019.2
20260831063034 22 0 0.0 0.0 0.00 0.00 0.00 95 1019.2
20260831061536 22 0 0.0 0.0 0.00 0.00 0.00 95 1019.4
20260831060038 22 0 0.0 0.0 0.00 0.00 0.00 95 1019.4
20260831054533 22 0 0.0 0.0 0.00 0.00 0.00 94 1019.3
20260831053053 22 0 0.0 0.0 0.00 0.00 0.00 94 1019.3
20260831051537 22 0 0.0 0.0 0.00 0.00 0.00 94 1019.4
20260831050039 22 0 0.0 0.0 0.00 0.00 0.00 94 1019.4
20260831044626 22 0 0.0 3.2 0.00 0.00 0.00 94 1019.3
20260831043040 22 0 0.0 0.0 0.00 0.00 0.00 93 1019.4
20260831041535 22 0 0.0 0.0 0.00 0.00 0.00 93 1019.5
20260831040035 23 0 0.0 0.0 0.00 0.00 0.00 92 1019.7
20260831034534 23 0 0.0 1.6 0.00 0.00 0.00 92 1019.5
20260831033052 23 0 0.0 0.0 0.00 0.00 0.00 91 1019.7
20260831031537 23 0 0.0 0.0 0.00 0.00 0.00 91 1019.5
20260831030035 23 0 0.0 0.0 0.00 0.00 0.00 90 1019.6
20260831024535 23 0 0.0 0.0 0.00 0.00 0.00 89 1019.6
20260831023035 23 0 0.0 0.0 0.00 0.00 0.00 89 1019.6
20260831021535 24 0 0.0 0.0 0.00 0.00 0.00 87 1019.6
20260831020037 24 0 0.0 0.0 0.00 0.00 0.00 85 1019.6
20260831014537 25 0 0.0 0.0 0.00 0.00 0.00 84 1019.6
20260831013037 25 0 0.0 0.0 0.00 0.00 0.00 83 1019.4
20260831011535 25 0 0.0 0.0 0.00 0.00 0.00 81 1019.1
20260831010054 26 0 0.0 1.6 0.00 0.00 0.00 80 1019.1
20260831004534 26 0 0.0 0.0 0.00 0.00 0.00 80 1019.1
20260831003036 26 0 0.0 0.0 0.00 0.00 0.00 79 1018.8
20260831001538 27 0 0.0 0.0 0.00 0.00 0.00 77 1018.7
20260831000033 28 0 0.0 0.0 0.00 0.00 0.00 76 1018.5
20260830234538 28 0 0.0 0.0 0.00 0.00 0.00 72 1018.4
20260830233040 29 0 0.0 0.0 0.00 0.00 0.00 69 1018.3
20260830231535 30 0 0.0 0.0 0.00 0.00 0.00 67 1018.3
20260830230035 31 0 0.0 1.6 0.00 0.00 0.00 65 1018.2
20260830224534 31 0 0.0 0.0 0.00 0.00 0.00 62 1018.1
20260830223036 32 0 0.0 0.0 0.00 0.00 0.00 60 1018.1
20260830221533 32 0 0.0 3.2 0.00 0.00 0.00 62 1018.1
20260830220033 32 0 0.0 1.6 0.00 0.00 0.00 59 1018.2
20260830214536 32 0 0.0 1.6 0.00 0.00 0.00 58 1018.4
20260830213048 32 0 0.0 3.2 0.00 0.00 0.00 61 1018.4
20260830211535 31 0 0.0 1.6 0.00 0.00 0.00 59 1018.6
20260830210039 31 0 0.0 4.8 0.00 0.00 0.00 62 1018.7
20260830204540 31 0 0.0 4.8 0.00 0.00 0.00 61 1018.6
20260830203035 31 0 1.6 4.8 0.00 0.00 0.00 62 1018.8
20260830201534 31 25 0.0 4.8 0.00 0.00 0.00 63 1018.9
20260830200035 31 0 0.0 3.2 0.00 0.00 0.00 66 1019.2
20260830194536 31 0 0.0 4.8 0.00 0.00 0.00 65 1019.4
20260830193035 30 82 0.0 3.2 0.00 0.00 0.00 66 1019.7
20260830191536 30 46 0.0 3.2 0.00 0.00 0.00 68 1019.8
20260830190036 29 35 0.0 3.2 0.00 0.00 0.00 71 1019.9
20260830184539 30 0 0.0 6.4 0.00 0.00 0.00 68 1020.0
20260830183035 30 0 1.6 4.8 0.00 0.00 0.00 69 1020.2
20260830181540 29 34 1.6 6.4 0.00 0.00 0.00 69 1020.5
20260830180036 28 0 0.0 3.2 0.00 0.00 0.00 76 1020.9
20260830174534 28 36 1.6 6.4 0.00 0.00 0.00 74 1021.1
20260830173034 28 0 0.0 4.8 0.00 0.00 0.00 75 1021.2
20260830171536 28 0 0.0 3.2 0.00 0.00 0.00 77 1021.4
20260830170038 28 0 0.0 4.8 0.00 0.00 0.00 78 1021.7
20260830164534 27 0 0.0 3.2 0.00 0.00 0.00 81 1021.7
20260830163034 27 34 0.0 3.2 0.00 0.00 0.00 79 1021.8
20260830161543 27 107 0.0 3.2 0.00 0.00 0.00 84 1021.9
20260830160037 26 0 0.0 4.8 0.00 0.00 0.00 87 1022.1
20260830154536 25 0 0.0 3.2 0.00 0.00 0.00 89 1022.3
20260830153037 25 0 0.0 4.8 0.00 0.00 0.00 91 1022.3
20260830151536 25 13 0.0 4.8 0.00 0.00 0.00 93 1022.4
20260830150106 24 0 0.0 3.2 0.00 0.00 0.00 94 1022.4
20260830144535 23 41 0.0 3.2 0.00 0.00 0.00 95 1022.4
20260830143041 23 0 0.0 3.2 0.00 0.00 0.00 95 1022.2
20260830141535 23 0 0.0 4.8 0.00 0.00 0.00 95 1022.4
20260830140034 23 0 0.0 3.2 0.00 0.00 0.00 96 1022.3
20260830134539 23 0 0.0 3.2 0.00 0.00 0.00 96 1022.2
20260830133044 23 30 0.0 4.8 0.00 0.00 0.00 97 1022.1
20260830131536 22 0 0.0 4.8 0.00 0.00 0.00 97 1022.0
20260830130036 22 0 0.0 6.4 0.00 0.00 0.00 98 1022.0
20260830124533 22 0 0.0 3.2 0.00 0.00 0.00 98 1021.9
20260830123034 22 0 0.0 0.0 0.00 0.00 0.00 98 1022.0
20260830121547 21 0 0.0 0.0 0.00 0.00 0.00 98 1022.1
20260830120035 21 0 0.0 0.0 0.00 0.00 0.00 98 1021.8
20260830114534 21 0 0.0 0.0 0.00 0.00 0.00 98 1021.6
20260830113032 20 0 0.0 0.0 0.00 0.00 0.00 98 1021.4
20260830111532 20 0 0.0 0.0 0.00 0.00 0.00 97 1021.3
20260830110036 20 0 0.0 0.0 0.00 0.00 0.00 97 1020.8
20260830104534 20 0 0.0 0.0 0.00 0.00 0.00 96 1020.6
20260830103037 21 0 0.0 0.0 0.00 0.00 0.00 96 1020.5
20260830101543 21 0 0.0 1.6 0.00 0.00 0.00 97 1020.5
20260830100035 21 0 0.0 3.2 0.00 0.00 0.00 97 1020.3
20260830094537 21 34 1.6 4.8 0.00 0.00 0.00 97 1020.2